Regional Weather Roundup
Issued by NWS

Home | Current Version | Previous Version | Text Only | Print | Product List | Glossary On
Versions: 1 2 3 4 5 6 7 8 9 10 11 12 13 14 15 16 17 18 19 20 21 22 23 24 25 26 27 28 29 30 31 32 33 34 35 36 37 38 39 40 41 42 43 44 45 46 47 48 49 50
000
ASPQ40 PGUM 070610
RWRPQ
WEATHER ROUNDUP FOR THE MARIANAS AND MICRONESIA
NATIONAL WEATHER SERVICE TIYAN GU
400 PM CHST THU MAY 07 2015

GUZ001>004-070700-
MARIANA ISLANDS-

CITY           SKY/WX    TMP DP  RH WIND       PRES   REMARKS
GUAM AIRPORT   NOT AVBL
ANDERSEN AFB   MOSUNNY   82  73  74 NE14      29.84S
ROTA AIRPORT   NOT AVBL
TINIAN AP      NOT AVBL
SAIPAN AP      MOSUNNY   84  73  70 E14       29.83F HX  91

$$

PMZ161-070700-
REPUBLIC OF PALAU-

CITY           SKY/WX    TMP DP  RH WIND       PRES   REMARKS
KOROR AP       CLOUDY    88  77  70 W14G22    29.72F HX 100
KOROR WSO      NOT AVBL

$$

PMZ171>174-070700-
FEDERATED STATES OF MICRONESIA-

CITY           SKY/WX    TMP DP  RH WIND       PRES   REMARKS
YAP AIRPORT    NOT AVBL
CHUUK AP       NOT AVBL
POHNPEI AP     NOT AVBL
POHNPEI WSO    CLOUDY    84  75  74 NE5       29.73  HX  92
KOSRAE AP      NOT AVBL

$$

PMZ181-070700-
REPUBLIC OF THE MARSHALL ISLANDS-

CITY           SKY/WX    TMP DP  RH WIND       PRES   REMARKS
KWAJALEIN AP   MOSUNNY   84  73  70 NE23      29.72R HX  91
MAJURO AP      NOT AVBL
MAJURO WSO     MOCLDY    84  79  84 NE20      29.71R HX  96

$$



USA.gov is the U.S. government's official web portal to all federal, state and local government web resources and services.